Tupelo, MS

3:23 PM CDT on April 28, 2017 (GMT -0500)
Tupelo Regional

Weather History for KTUP - October, 2012

Change the Weather History Date:

Friday, October 19, 2012

  Actual Average Record
Temperature  
Mean Temperature 59 °F 62 °F  
Max Temperature 70 °F 74 °F 91 °F (2016)
Min Temperature 48 °F 50 °F 33 °F (1967)
Degree Days  
Heating Degree Days 6 5  
Month to date heating degree days 63 59  
Since 1 July heating degree days 74 71  
Cooling Degree Days 0 2  
Month to date cooling degree days 34 59  
Year to date cooling degree days 2194 2017  
Growing Degree Days 8 (Base 50)    
Moisture  
Dew Point 41 °F    
Average Humidity 58    
Maximum Humidity 83    
Minimum Humidity 32    
Precipitation  
Precipitation 0.00 in 0.14 in 2.45 in (2004)
Month to date precipitation 3.03 2.55  
Year to date precipitation 41.49 42.46  
Snow  
Snow 0.00 in 0.00 in 0.00 in (2002)
Month to date snowfall 0.0 0.0  
Since 1 July snowfall 0.0 0.0  
Since 1 September snowfall 0.0 0.0  
Snow Depth 0.00 in    
Sea Level Pressure  
Sea Level Pressure 29.80 in    
Wind  
Wind Speed 7 mph (West)    
Max Wind Speed 18 mph    
Max Gust Speed 25 mph    
Visibility 10 miles    
Events      
T = Trace of Precipitation, MM = Missing Value Source: NWS Daily Summary

Daily Weather History Graph

Daily Weather History Graph

Search for Another Location

Airport or City:

Trip Planner

Search our weather history database for the weather conditions in past years. The results will help you decide how hot, cold, wet, or windy it might be!

Date:

Astronomy

Oct. 19, 2012 Rise Set
Actual Time 7:04 AM CDT 6:15 PM CDT
Civil Twilight 6:38 AM CDT 6:40 PM CDT
Nautical Twilight 6:09 AM CDT 7:09 PM CDT
Astronomical Twilight 5:40 AM CDT 7:38 PM CDT
Moon 11:37 AM CDT (10/19) 10:02 PM CDT (10/19)
Length of Visible Light 12h 02m
Length of Day
11h 11m
Waxing Crescent, 24% of the Moon is Illuminated
Oct 19
Waxing Crescent
Oct 21
First Quarter
Oct 29
Full
Nov 6
Last Quarter
Nov 13
New

Hourly Weather History & Observations

Time (CDT) Temp. Dew Point Humidity Pressure Visibility Wind Dir Wind Speed Gust Speed Precip Events Conditions
12:53 AM 50.0 °F 42.1 °F 74% 29.82 in 10.0 mi WSW 3.5 mph - N/A   Clear
1:53 AM 52.0 °F 42.1 °F 69% 29.80 in 10.0 mi WSW 3.5 mph - N/A   Overcast
2:53 AM 52.0 °F 41.0 °F 66% 29.80 in 10.0 mi WSW 4.6 mph - N/A   Overcast
3:53 AM 50.0 °F 42.1 °F 74% 29.80 in 10.0 mi WSW 4.6 mph - N/A   Overcast
4:53 AM 51.1 °F 41.0 °F 68% 29.79 in 10.0 mi WSW 3.5 mph - N/A   Overcast
5:53 AM 51.1 °F 41.0 °F 68% 29.79 in 10.0 mi WSW 4.6 mph - N/A   Overcast
6:53 AM 52.0 °F 39.9 °F 63% 29.79 in 10.0 mi WSW 5.8 mph - N/A   Overcast
7:53 AM 53.1 °F 39.9 °F 61% 29.78 in 10.0 mi WSW 6.9 mph - N/A   Overcast
8:53 AM 55.9 °F 41.0 °F 57% 29.80 in 10.0 mi West 10.4 mph - N/A   Clear
9:53 AM 60.1 °F 39.9 °F 47% 29.81 in 10.0 mi WNW 9.2 mph - N/A   Clear
10:53 AM 64.9 °F 39.0 °F 39% 29.80 in 10.0 mi WNW 8.1 mph 19.6 mph N/A   Clear
11:53 AM 66.9 °F 39.0 °F 36% 29.79 in 6.0 mi West 10.4 mph 17.3 mph N/A   Haze
12:53 PM 68.0 °F 37.9 °F 33% 29.77 in 10.0 mi West 11.5 mph 23.0 mph N/A   Overcast
1:53 PM 68.0 °F 37.9 °F 33% 29.76 in 6.0 mi NW 12.7 mph 21.9 mph N/A   Haze
2:53 PM 69.1 °F 39.0 °F 33% 29.75 in 10.0 mi West 17.3 mph 23.0 mph N/A   Haze
3:53 PM 69.1 °F 39.9 °F 35% 29.76 in 10.0 mi West 18.4 mph 24.2 mph N/A   Haze
4:53 PM 66.0 °F 39.0 °F 37% 29.79 in 10.0 mi WNW 8.1 mph 16.1 mph N/A   Haze
5:53 PM 64.0 °F 39.9 °F 41% 29.81 in 10.0 mi NW 4.6 mph - N/A   Haze
6:53 PM 61.0 °F 41.0 °F 48% 29.83 in 10.0 mi Calm Calm - N/A   Haze
7:53 PM 57.9 °F 46.0 °F 65% 29.85 in 10.0 mi Calm Calm - N/A   Haze
8:53 PM 57.0 °F 45.0 °F 64% 29.85 in 10.0 mi WNW 3.5 mph - N/A   Haze
9:53 PM 52.0 °F 46.0 °F 80% 29.86 in 10.0 mi Calm Calm - N/A   Haze
10:53 PM 54.0 °F 44.1 °F 69% 29.88 in 10.0 mi North 6.9 mph - N/A   Haze
11:53 PM 51.1 °F 44.1 °F 77% 29.88 in 10.0 mi NE 4.6 mph - N/A   Haze